Tracking 28915 objects as of 30-May-2024
HD Live streaming from Space Station
objects crossing your sky now

ASTROCAST-0101

Track ASTROCAST-0101 now!
10-day predictions
ASTROCAST-0101 is classified as:


NORAD ID: 47430
Int'l Code: 2021-006T
Perigee: 489.2 km
Apogee: 497.7 km
Inclination: 97.3 °
Period: 94.3 minutes
Semi major axis: 6864 km
RCS: Unknown
Launch date: January 24, 2021
Source: (SWTZ)
Launch site: AIR FORCE EASTERN TEST RANGE (AFETR)

Uplink (MHz):
Downlink (MHz):
Beacon (MHz):
Mode:
Call sign:
Status: Unknown

Your satellite tracking list
Your tracking list is empty




NASA's NSSDC Master Catalog

Two Line Element Set (TLE):
1 47430U 21006T   24151.13031573  .00014019  00000-0  53901-3 0  9999
2 47430  97.3448 204.5086 0006184 334.6132  25.4802 15.26504886185416
Source of the keplerian elements: AFSPC